Location: Home
(42.5358°N, 72.7383°W)
Time: 01:03:51
(UTC-05:00)

Vanguard 1 Rocket - Pass Details

Date: 07 December 2021
Orbit: 651 x 4224 km, 34.3° (Epoch: 23 January)

Event Time Altitude Azimuth Distance (km) Brightness Sun altitude
Exits shadow 04:38:05 34° 251° (WSW) 3,421 9.8 -26.7°
Maximum altitude 04:45:42 62° 187° (S) 3,241 10.0 -25.3°
Drops below altitude 10° 05:08:45 10° 115° (ESE) 7,305 13.1 -21.1°
Sets 05:14:58 0° 113° (ESE) 8,456 13.9 -20.0°
